Location: Kershaw
(34.5481°N, 80.5823°W)
Time: 15:19:11
(UTC+00:00)

Courier 1B Rocket - Pass Details

Date: 29 September 2022
Orbit: 920 x 1202 km, 28.2° (Epoch: 08 December)

Event Time Altitude Azimuth Distance (km) Brightness Sun altitude
Rises 23:05:02 0° 204° (SSW) 3,755 8.5 0.0°
Reaches altitude 10° 23:09:35 10° 177° (S) 2,738 7.4 -0.9°
Maximum altitude 23:12:15 13° 153° (SSE) 2,512 6.9 -1.5°
Drops below altitude 10° 23:14:53 10° 128° (SE) 2,674 6.9 -2.0°
Enters shadow 23:18:29 - 104° (ESE) 3,396 7.2 -2.8°
Sets 23:19:11 0° 101° (E) 3,580 - -2.9°
